Погода в Нагутском

Россия / Ставропольский край     44°26′28″N   42°52′11″E
темп.,
°C
ветер,
м/с
пор.,
м/с
влажн.,
%
обл.,
%
осадки,
мм/ч
давл.,
гПа
погр.,
м
18 сентября, сб
сб1800:00+10вюв377272 0.0 1017174
03:00+9вюв35775 0.0 1017110
06:00+9вюв22860 0.0 101734
09:00+16юв33640 0.0 1016491
12:00+21вюв43485 0.0 10151088
15:00+23вюв544217 0.0 10131403
18:00+19вюв5857100 0.0 1014228
21:00+16вюв51067100 0.0 1015288
19 сентября, вс
вс1900:00+14вюв51174100 0.0 1014287
03:00+13вюв5109278 0.0 1014273
06:00+12вюв499872 0.0 1015259
09:00+18вюв68715 0.0 1014534
12:00+23вюв665247 0.0 1013974
15:00+24вюв664572 0.0 10121302
18:00+21вюв3756100 0.0 1013147
21:00+19вюв496125 0.0 1013256
20 сентября, пн
пн2000:00+16вюв3769100 0.0 1013161
03:00+16вюв34666 0.0 1013126
06:00+14юв117799 0.0 101310
09:00+20ю0060100 0.0 1013300
12:00+24св1142100 0.0 10131022
15:00+26св223776 0.0 10121975
18:00+20юз2263100 0.8 101423
21:00+16зюз118556 2.7 101616
21 сентября, вт
вт2100:00+16ю1184100 0.6 101511
03:00+15ююв118538 0.6 101511
06:00+15в118637 0.0 101511
09:00+20вюв35607 0.0 1014460
12:00+26юв664072 0.0 10121029
15:00+27юв5435100 0.0 10101289
18:00+19зсз51076100 3.1 1015563
21:00+16зсз1291100 3.7 101638
22 сентября, ср
ср2200:00+16сз359420 0.6 1015236
03:00+15зсз4788100 0.7 1016447
06:00+13зсз5884100 0.3 1017532
09:00+13зсз4673100 0.4 1018547
12:00+14сз2470100 0.2 1017770
15:00+15з2366100 0.3 1016784
18:00+13ю4588100 1.0 1017251
21:00+13ю1187100 1.1 1017120